Home   Weather   Mazatlan   Past weeks

Flag for Mexico Past Weather in Mazatlan, Sinaloa, Mexico — Yesterday and Last 2 Weeks

Now
84 °F

Partly sunny.


Feels Like: 91 °F
Forecast: 78 / 85 °F
Wind: 8 mph from South

Location: Mazatlan / G. Buelna

Current Time: Jun 24, 2017 at 11:24:34 am

Latest Report: Jun 24, 2017 at 10:40 am


Visibility: 15 mi

Pressure: 29.84 "Hg

Humidity: 70%

Dew Point: 73 °F

Location of MazatlanLocation

Past Weather in Mazatlan — Graph

°F

Mazatlan Temperature Yesterday

Maximum temperature yesterday: 86 °F (at 11:45 am)
Minimum temperature yesterday: 77 °F (at 2:41 am)
Average temperature yesterday: 81 °F

High & Low Weather Summary for the Past Weeks

 TemperatureHumidityPressure
High91 °F (Jun 18, 1:40 pm)94% (Jun 19, 6:40 am)29.94 "Hg (Jun 19, 6:40 am)
Low73 °F (Jun 19, 6:40 am)43% (Jun 15, 10:43 am)29.65 "Hg (Jun 18, 4:42 pm)
Average82 °F74%29.81 "Hg
* Reported Jun 9 9:43 am — Jun 24 9:40 am, Mazatlan. Weather by CustomWeather, © 2017

Note: Actual official high and low records may vary slightly from our data, if they occured in-between our weather recording intervals... More about our weather records

Advertising

Mazatlan Weather History for the Previous 24 Hours

Scroll right to see more
 ConditionsComfort  
Time TempWeatherWind HumidityBarometerVisibility
9:40 am
Sat, Jun 24
82 °FPartly sunny.9 mph74%29.85 "Hg15 mi
8:41 am82 °FScattered clouds.6 mph74%29.80 "Hg15 mi
7:42 am79 °FPassing clouds.3 mph79%29.83 "Hg12 mi
6:44 am75 °FPartly sunny.3 mph89%29.81 "Hg10 mi
5:45 am75 °FPassing clouds.No wind89%29.78 "Hg10 mi
4:42 am77 °FPassing clouds.No wind83%29.78 "Hg10 mi
3:43 am77 °FMostly cloudy.No wind83%29.78 "Hg10 mi
2:43 am79 °FMostly cloudy.No wind79%29.80 "Hg10 mi
1:41 am79 °FMostly cloudy.No wind79%29.81 "Hg10 mi
12:40 am81 °FMostly cloudy.No wind74%29.82 "Hg10 mi
11:50 pm
Fri, Jun 23
81 °FMostly cloudy.No wind74%29.82 "Hg10 mi
10:42 pm81 °FMostly cloudy.5 mph74%29.84 "Hg10 mi
9:42 pm81 °FPassing clouds.5 mph70%29.80 "Hg10 mi
8:42 pm81 °FPassing clouds.No wind74%29.73 "Hg10 mi
7:42 pm81 °FScattered clouds.7 mph74%29.77 "Hg14 mi
6:42 pm82 °FScattered clouds.9 mph74%29.75 "Hg15 mi
5:49 pm82 °FScattered clouds.9 mph66%29.72 "Hg15 mi
4:41 pm84 °FScattered clouds.8 mph66%29.76 "Hg15 mi
3:41 pm84 °FPassing clouds.13 mph66%29.76 "Hg15 mi
2:45 pm86 °FScattered clouds.9 mph62%29.75 "Hg15 mi
1:42 pm86 °FPassing clouds.8 mph62%29.81 "Hg15 mi
12:42 pm86 °FPassing clouds.9 mph66%29.83 "Hg15 mi
11:45 am86 °FPassing clouds.6 mph66%29.82 "Hg15 mi
Weather by CustomWeather, © 2017

See weather overviewHow to use our weather pages